Location: Auckland
(36.8670°S, 174.7670°E)
Time: 20:44:47
(UTC+12:00)

A-11 Canister half - Pass Details

Date: 21 July 2019
Orbit: 1526 x 1683 km, 47.3° (Epoch: 23 August)

Event Time Altitude Azimuth Distance (km) Brightness Sun altitude
Rises 11:30:14 0° 262° (W) 4,731 11.4 31.0°
Reaches altitude 10° 11:33:29 10° 256° (WSW) 3,768 10.9 31.2°
Maximum altitude 11:42:36 46° 184° (S) 2,067 9.6 31.6°
Drops below altitude 10° 11:52:02 10° 112° (ESE) 3,889 11.1 32.0°
Sets 11:55:27 0° 106° (ESE) 4,895 11.6 32.1°
